[[{"header":{"parameterUnit":"m.s-1","parameterCategory":1,"la1":30.2991,"la2":30.254,"lo1":-89.0895,"lo2":-89.0444,"dy":0.0017,"dx":0.0017,"nx":28,"ny":28,"refTime":"2025-09-05T03:00:00:Z","depth":0,"parameterNumber":2,"parameterNumberName":"U-component_of_WINDS"},"data":[0,0,0,0,0,0,0,0,0,0,0,0,0,0,0,0,0,0,0,0,0,0,0,0,0,0,0,0,0,0,0,0,0,0,0,0,0,0,0,0,0,0,0,0,0,0,0,0,0,0,0,0,0,0,0,0,0,0,1.3077,1.3077,0,1.3089,1.3089,1.309,1.3082,1.3081,1.3081,1.3081,1.3095,1.3095,1.3096,0,0,0,0,0,0,0,0,0,0,0,0,0,1.3048,1.3048,1.3077,1.3077,1.3077,1.3089,1.3089,1.309,1.3082,1.3081,1.3081,1.308,1.3094,1.3095,1.3096,0,0,0,0,0,0,0,0,0,0,0,0,0,1.306,1.3049,1.3077,1.3075,1.3074,1.3089,1.3089,1.309,1.3082,1.3081,1.3081,1.308,1.3094,1.3095,1.3096,1.3114,0,0,1.3099,1.31,0,0,0,0,0,0,0,0,1.306,1.3062,1.3075,1.3075,1.3075,1.3083,1.3084,1.3098,1.3082,1.3079,1.3081,1.308,1.3091,1.3093,1.3096,1.3115,1.3115,1.3099,1.31,1.3101,1.3101,0,0,0,0,0,0,0,1.3059,1.3061,1.3082,1.3075,1.3075,1.3074,1.3075,1.3087,1.3088,1.3079,1.3079,1.308,1.3091,1.3095,1.3096,1.3115,1.3099,1.31,1.3101,1.3101,1.3151,1.3151,0,0,0,0,0,0,1.3058,1.306,1.3081,1.3082,1.3066,1.3075,1.3076,1.3081,1.3088,1.3089,1.3081,1.308,1.3094,1.3095,1.3097,1.3119,1.3101,1.3102,1.3102,1.315,1.3151,1.3152,0,0,0,0,0,0,1.3057,1.306,1.3081,1.3071,1.3074,1.3076,1.3082,1.3082,1.3086,1.3089,1.309,1.3084,1.3093,1.3095,1.311,1.3119,1.3102,1.3103,1.3149,1.315,1.3151,1.3163,0,0,0,0,0,0,1.3057,1.306,1.3066,1.3071,1.3074,1.3093,1.3082,1.3082,1.3087,1.3086,1.3093,1.3093,1.3093,1.3109,1.3111,1.3121,1.3104,1.3149,1.315,1.3151,1.3162,1.3164,1.3167,0,0,0,0,0,1.3056,1.3069,1.3066,1.3069,1.3082,1.3093,1.3095,1.3094,1.3088,1.3095,1.3097,1.3093,1.3118,1.311,1.3113,1.3123,1.3148,1.3149,1.3151,1.3161,1.3164,1.3167,0,0,0,0,0,0,1.3064,1.3069,1.3067,1.3081,1.3087,1.3092,1.31,1.3097,1.3105,1.3104,1.3103,1.3105,1.312,1.3123,1.3114,1.3142,1.3132,1.3134,1.3139,1.3142,1.3144,1.3143,1.3105,0,0,0,0,0,1.3068,1.3076,1.308,1.3093,1.3096,1.3098,1.3103,1.3102,1.3108,1.311,1.3114,1.312,1.313,1.3136,1.3145,1.3163,1.3165,1.3171,1.3173,1.3175,1.3177,1.3188,1.3191,1.3157,1.3157,1.3157,0,0,1.3075,1.3079,1.3084,1.3095,1.3099,1.3109,1.31,1.311,1.3118,1.3112,1.3126,1.3129,1.3136,1.3153,1.3161,1.3156,1.3187,1.3177,1.3179,1.318,1.319,1.3193,1.3196,1.3158,1.3157,1.3157,0,0,1.3094,1.3097,1.3109,1.3114,1.312,1.3122,1.3125,1.3131,1.3132,1.3147,1.3143,1.3152,1.3168,1.3174,1.3179,1.3202,1.3199,1.3205,1.3217,1.3228,1.3231,1.3233,1.3242,1.3245,1.3207,1.3207,1.3207,0,1.3102,1.3116,1.3115,1.3126,1.3132,1.3127,1.314,1.3145,1.3154,1.3158,1.3153,1.3174,1.3179,1.3197,1.3203,1.3207,1.3211,1.3204,1.323,1.3233,1.3235,1.3243,1.3247,1.3208,1.3207,1.3207,1.3207,0,1.3127,1.3137,1.3146,1.3155,1.3162,1.3173,1.3175,1.3182,1.3181,1.3183,1.3199,1.3204,1.3214,1.3219,1.3218,1.3238,1.3235,1.323,1.3221,1.3239,1.3247,1.325,1.3209,1.3208,1.3208,1.3208,0,0,1.315,1.316,1.3163,1.3168,1.3176,1.3184,1.3196,1.3207,1.3213,1.322,1.3231,1.3245,1.3241,1.3247,1.3247,1.3256,1.3276,1.3251,1.3251,1.3255,1.3299,1.3303,1.3307,1.3274,1.3274,1.3275,1.3299,0,1.317,1.3191,1.3191,1.321,1.322,1.3217,1.3228,1.3235,1.3238,1.3247,1.325,1.3261,1.3254,1.3258,1.3267,1.3271,1.3284,1.327,1.3285,1.3285,1.3283,1.3311,1.3314,1.3337,1.3302,1.3303,1.3303,0,1.3195,1.3203,1.3224,1.3232,1.3236,1.3245,1.3256,1.3264,1.3273,1.3274,1.3281,1.328,1.3294,1.3285,1.3304,1.3294,1.33,1.3304,1.3305,1.3306,1.3295,1.3313,1.3344,1.3347,1.3308,1.3307,1.3307,0,1.3211,1.3227,1.3242,1.3246,1.3255,1.3262,1.3267,1.3274,1.3281,1.329,1.3295,1.3306,1.3312,1.3321,1.3323,1.3316,1.3343,1.3333,1.3345,1.3345,1.3351,1.335,1.3383,1.3355,1.3355,1.3355,1.3354,0,1.3233,1.3245,1.3249,1.3258,1.3273,1.3274,1.3288,1.3292,1.33,1.331,1.3308,1.3318,1.3321,1.3332,1.3334,1.335,1.3353,1.3355,1.3356,1.3355,1.3355,1.3359,1.3358,1.3355,1.3355,1.3355,1.3355,0,1.3252,1.3255,1.3271,1.3279,1.3281,1.3292,1.3299,1.3308,1.3312,1.3325,1.3328,1.3334,1.3346,1.335,1.3365,1.3367,1.3386,1.3385,1.3383,1.3383,1.3395,1.3394,1.3432,1.3437,1.3405,1.3406,1.3406,0,1.3266,1.3276,1.3285,1.3292,1.3297,1.3307,1.3315,1.3317,1.3324,1.3335,1.3343,1.3356,1.3366,1.3387,1.3393,1.3405,1.3404,1.3417,1.3406,1.3406,1.3405,1.3404,1.3406,1.3419,1.3419,1.3419,1.3419,0,1.329,1.3292,1.3301,1.3312,1.3321,1.3329,1.3338,1.3344,1.3347,1.3356,1.3369,1.3377,1.3393,1.3406,1.3419,1.3424,1.3423,1.3423,1.3426,1.3426,1.3425,1.3426,1.3389,1.3422,1.3422,1.3421,1.3421,1.3421,1.3308,1.3317,1.3325,1.3336,1.3343,1.3351,1.3361,1.3366,1.3376,1.3389,1.339,1.3405,1.3415,1.3431,1.3438,1.345,1.3446,1.3451,1.3452,1.3453,1.3455,1.3423,1.3452,1.3452,1.3452,1.3452,1.3452,0,1.3332,1.3338,1.3348,1.336,1.337,1.3368,1.3377,1.3385,1.3398,1.3407,1.3417,1.3433,1.3446,1.3454,1.3467,1.3475,1.3475,1.3479,1.3478,1.348,1.3457,1.3453,1.3479,1.3479,1.3479,1.3479,1.3479,1.3479,1.3346,1.3362,1.3364,1.3383,1.3389,1.3403,1.3409,1.3417,1.3424,1.3442,1.3453,1.3457,1.3466,1.348,1.3493,1.3495,1.35,1.3504,1.3506,1.3484,1.3481,1.3478,1.3475,1.3505,1.3505,1.3527,1.3528,1.3528]},{"header":{"parameterUnit":"m.s-1","parameterCategory":1,"la1":30.2991,"la2":30.254,"lo1":-89.0895,"lo2":-89.0444,"dy":0.0017,"dx":0.0017,"nx":28,"ny":28,"refTime":"2025-09-05T03:00:00:Z","depth":0,"parameterNumber":3,"parameterNumberName":"V-component_of_WINDS"},"data":[0,0,0,0,0,0,0,0,0,0,0,0,0,0,0,0,0,0,0,0,0,0,0,0,0,0,0,0,0,0,0,0,0,0,0,0,0,0,0,0,0,0,0,0,0,0,0,0,0,0,0,0,0,0,0,0,0,0,-0.4748,-0.4748,0,-0.4763,-0.4763,-0.4763,-0.4757,-0.4757,-0.4757,-0.4756,-0.4773,-0.4773,-0.4774,0,0,0,0,0,0,0,0,0,0,0,0,0,-0.4719,-0.472,-0.4748,-0.4748,-0.4749,-0.4763,-0.4763,-0.4763,-0.4757,-0.4757,-0.4757,-0.4756,-0.4772,-0.4773,-0.4774,0,0,0,0,0,0,0,0,0,0,0,0,0,-0.4733,-0.472,-0.4748,-0.4747,-0.4747,-0.4763,-0.4763,-0.4764,-0.4757,-0.4757,-0.4756,-0.4756,-0.4772,-0.4773,-0.4774,-0.4792,0,0,-0.4778,-0.4778,0,0,0,0,0,0,0,0,-0.4732,-0.4734,-0.4747,-0.4747,-0.4748,-0.4758,-0.4759,-0.4773,-0.4758,-0.4754,-0.4756,-0.4756,-0.4768,-0.477,-0.4774,-0.4793,-0.4794,-0.4778,-0.4779,-0.4779,-0.4779,0,0,0,0,0,0,0,-0.4731,-0.4733,-0.4754,-0.4748,-0.4748,-0.4748,-0.4749,-0.4762,-0.4764,-0.4754,-0.4754,-0.4755,-0.4768,-0.4773,-0.4774,-0.4794,-0.4778,-0.4779,-0.478,-0.478,-0.4833,-0.4834,0,0,0,0,0,0,-0.473,-0.4732,-0.4754,-0.4755,-0.4738,-0.4749,-0.475,-0.4755,-0.4764,-0.4764,-0.4756,-0.4755,-0.4771,-0.4773,-0.4774,-0.4799,-0.4779,-0.478,-0.4781,-0.4833,-0.4834,-0.4834,0,0,0,0,0,0,-0.4729,-0.4732,-0.4753,-0.4744,-0.4746,-0.475,-0.4755,-0.4756,-0.476,-0.4765,-0.4766,-0.476,-0.477,-0.4773,-0.4789,-0.4799,-0.4781,-0.4782,-0.4832,-0.4833,-0.4834,-0.4846,0,0,0,0,0,0,-0.4728,-0.4731,-0.4737,-0.4744,-0.4747,-0.4766,-0.4756,-0.4756,-0.4762,-0.4761,-0.4769,-0.4769,-0.477,-0.4787,-0.479,-0.48,-0.4783,-0.4831,-0.4832,-0.4834,-0.4845,-0.4847,-0.4849,0,0,0,0,0,-0.4727,-0.4739,-0.4737,-0.474,-0.4753,-0.4766,-0.4768,-0.4768,-0.4762,-0.4769,-0.4773,-0.4769,-0.4798,-0.4789,-0.4792,-0.4803,-0.483,-0.4832,-0.4833,-0.4843,-0.4847,-0.4849,0,0,0,0,0,0,-0.4732,-0.4739,-0.4738,-0.4751,-0.4759,-0.4765,-0.4773,-0.4771,-0.478,-0.4779,-0.4779,-0.4781,-0.4799,-0.4802,-0.4792,-0.4823,-0.4813,-0.4816,-0.482,-0.4823,-0.4825,-0.4824,-0.4784,0,0,0,0,0,-0.4735,-0.4744,-0.475,-0.4762,-0.4766,-0.4769,-0.4775,-0.4775,-0.4782,-0.4785,-0.479,-0.4798,-0.4809,-0.4816,-0.4826,-0.4845,-0.4849,-0.4855,-0.4857,-0.4859,-0.4862,-0.4876,-0.488,-0.484,-0.484,-0.484,0,0,-0.4741,-0.4746,-0.4751,-0.4763,-0.4769,-0.478,-0.4771,-0.4782,-0.4791,-0.4786,-0.4802,-0.4807,-0.4816,-0.4835,-0.4843,-0.4838,-0.4874,-0.4861,-0.4863,-0.4864,-0.4878,-0.4882,-0.4885,-0.4841,-0.4841,-0.484,0,0,-0.4757,-0.4761,-0.4773,-0.4779,-0.4788,-0.4791,-0.4794,-0.4802,-0.4805,-0.4821,-0.4819,-0.4831,-0.4848,-0.4857,-0.4863,-0.4888,-0.4886,-0.4891,-0.4904,-0.4918,-0.4921,-0.4924,-0.4936,-0.494,-0.4893,-0.4893,-0.4893,0,-0.4763,-0.4779,-0.4779,-0.4792,-0.4799,-0.4796,-0.481,-0.4816,-0.4828,-0.4834,-0.4828,-0.4854,-0.486,-0.4882,-0.4889,-0.4893,-0.4899,-0.489,-0.4921,-0.4924,-0.4926,-0.4938,-0.4942,-0.4894,-0.4894,-0.4894,-0.4894,0,-0.4787,-0.4799,-0.4807,-0.482,-0.4828,-0.4841,-0.4846,-0.4854,-0.4855,-0.4859,-0.4878,-0.4885,-0.4899,-0.4904,-0.4904,-0.4928,-0.4925,-0.492,-0.4911,-0.4931,-0.4942,-0.4946,-0.4895,-0.4895,-0.4894,-0.4894,0,0,-0.4804,-0.482,-0.4824,-0.4831,-0.4843,-0.4852,-0.4867,-0.4881,-0.489,-0.4899,-0.4913,-0.4931,-0.4928,-0.4935,-0.4936,-0.4949,-0.4972,-0.4943,-0.4943,-0.495,-0.5003,-0.5008,-0.5013,-0.4971,-0.4972,-0.4972,-0.5003,0,-0.4823,-0.4848,-0.4851,-0.4874,-0.4887,-0.4887,-0.49,-0.491,-0.4916,-0.4929,-0.4935,-0.4949,-0.4942,-0.4947,-0.4959,-0.4967,-0.4983,-0.4964,-0.4986,-0.4987,-0.4985,-0.5018,-0.5022,-0.505,-0.5007,-0.5008,-0.5008,0,-0.4847,-0.4859,-0.4883,-0.4898,-0.4903,-0.4915,-0.493,-0.4942,-0.4955,-0.4958,-0.4969,-0.497,-0.4988,-0.4978,-0.5005,-0.4992,-0.5002,-0.5007,-0.5008,-0.5011,-0.4999,-0.5023,-0.5059,-0.5064,-0.5014,-0.5014,-0.5014,0,-0.486,-0.4882,-0.4901,-0.4907,-0.4923,-0.4932,-0.494,-0.4952,-0.4962,-0.4976,-0.4983,-0.4998,-0.5007,-0.5021,-0.5027,-0.5019,-0.5055,-0.5044,-0.5061,-0.5061,-0.5068,-0.5068,-0.5108,-0.5072,-0.5072,-0.5072,-0.5072,0,-0.4881,-0.4896,-0.4907,-0.4919,-0.4938,-0.4943,-0.4962,-0.4969,-0.4981,-0.4996,-0.4997,-0.5011,-0.5019,-0.5035,-0.504,-0.5064,-0.5067,-0.5072,-0.5074,-0.5073,-0.5073,-0.508,-0.5079,-0.5073,-0.5073,-0.5072,-0.5072,0,-0.4898,-0.4905,-0.4926,-0.4941,-0.4946,-0.4959,-0.4973,-0.4986,-0.4993,-0.5012,-0.5017,-0.5028,-0.5048,-0.5056,-0.5079,-0.5083,-0.5111,-0.511,-0.5107,-0.5108,-0.5125,-0.5124,-0.5172,-0.518,-0.5137,-0.5137,-0.5138,0,-0.4911,-0.4923,-0.4941,-0.4951,-0.4959,-0.4975,-0.4986,-0.4993,-0.5005,-0.5024,-0.5035,-0.5055,-0.5071,-0.5103,-0.5114,-0.5133,-0.5134,-0.515,-0.5137,-0.5137,-0.5138,-0.5137,-0.514,-0.5152,-0.5153,-0.5153,-0.5153,0,-0.4934,-0.4938,-0.4953,-0.4972,-0.4985,-0.4999,-0.5013,-0.5022,-0.5032,-0.5046,-0.5066,-0.5079,-0.5105,-0.5126,-0.5147,-0.5157,-0.5158,-0.5158,-0.5163,-0.5163,-0.5161,-0.5165,-0.5115,-0.5156,-0.5156,-0.5156,-0.5156,-0.5155,-0.495,-0.4963,-0.4979,-0.4997,-0.5009,-0.5024,-0.5038,-0.5048,-0.5065,-0.5087,-0.5091,-0.5114,-0.5132,-0.516,-0.5171,-0.5191,-0.5187,-0.5194,-0.5196,-0.5198,-0.5201,-0.5158,-0.5195,-0.5195,-0.5195,-0.5195,-0.5194,0,-0.4975,-0.4987,-0.5004,-0.5025,-0.5041,-0.5041,-0.5058,-0.5072,-0.5092,-0.5108,-0.5125,-0.5152,-0.5173,-0.5188,-0.5211,-0.5224,-0.5226,-0.523,-0.523,-0.5233,-0.5201,-0.5196,-0.5229,-0.5229,-0.5229,-0.5229,-0.5229,-0.5229,-0.499,-0.5013,-0.502,-0.5051,-0.5063,-0.5085,-0.5096,-0.5111,-0.5124,-0.5154,-0.5172,-0.5182,-0.5199,-0.5224,-0.5245,-0.5249,-0.5259,-0.5264,-0.5268,-0.5238,-0.5235,-0.5231,-0.5226,-0.5265,-0.5265,-0.5299,-0.5299,-0.5299]}]]